Weather History for KCRP - November, 2013

Change the Weather History Date:

Thursday, November 7, 2013

  Actual Average Record
Temperature  
Mean Temperature 62 °F 69 °F  
Max Temperature 69 °F 79 °F 91 °F (1988)
Min Temperature 55 °F 59 °F 36 °F (1959)
Degree Days  
Heating Degree Days 3 2  
Month to date heating degree days 3 9  
Since 1 July heating degree days 3 19  
Cooling Degree Days 0 5  
Month to date cooling degree days 48 42  
Year to date cooling degree days 4031 3393  
Growing Degree Days 12 (Base 50)    
Moisture  
Dew Point 42 °F    
Average Humidity 49    
Maximum Humidity 67    
Minimum Humidity 30    
Precipitation  
Precipitation 0.00 in 0.08 in 3.82 in (1888)
Month to date precipitation 0.52 0.60  
Year to date precipitation 20.29 28.56  
Snow  
Snow 0.00 in - - ()
Month to date snowfall 0.0  
Since 1 July snowfall 0.0  
Since 1 September snowfall 0.0  
Snow Depth 0.00 in    
Sea Level Pressure  
Sea Level Pressure 30.34 in    
Wind  
Wind Speed 15 mph (North)    
Max Wind Speed 24 mph    
Max Gust Speed 31 mph    
Visibility 10 miles    
Events      
T = Trace of Precipitation, MM = Missing Value Source: NWS Daily Summary

Daily Weather History Graph

Daily Weather History Graph

Search for Another Location

Airport or City:

Trip Planner

Search our weather history database for the weather conditions in past years. The results will help you decide how hot, cold, wet, or windy it might be!

Date:

Astronomy

Nov. 07, 2013 Rise Set
Actual Time 6:45 AM CST 5:41 PM CST
Civil Twilight 6:21 AM CST 6:06 PM CST
Nautical Twilight 5:53 AM CST 6:34 PM CST
Astronomical Twilight 5:25 AM CST 7:01 PM CST
Moon 10:50 AM CST (11/7) 9:57 PM CST (11/7)
Length of Visible Light 11h 45m
Length of Day
10h 56m
Waxing Crescent, 23% of the Moon is Illuminated
Nov 7
Waxing Crescent
Nov 9
First Quarter
Nov 17
Full
Nov 25
Last Quarter
Dec 2
New

Hourly Weather History & Observations

Time (CST) Temp. Dew Point Humidity Pressure Visibility Wind Dir Wind Speed Gust Speed Precip Events Conditions
12:51 AM 59.0 °F 48.9 °F 69% 30.24 in 10.0 mi North 18.4 mph - N/A   Mostly Cloudy
1:51 AM 57.9 °F 46.0 °F 65% 30.25 in 10.0 mi North 20.7 mph - N/A   Mostly Cloudy
2:51 AM 57.0 °F 45.0 °F 64% 30.25 in 10.0 mi North 18.4 mph 26.5 mph N/A   Scattered Clouds
3:51 AM 57.0 °F 45.0 °F 64% 30.27 in 10.0 mi North 20.7 mph 27.6 mph N/A   Mostly Cloudy
4:51 AM 55.9 °F 45.0 °F 67% 30.29 in 10.0 mi North 20.7 mph 25.3 mph N/A   Mostly Cloudy
5:51 AM 55.9 °F 45.0 °F 67% 30.31 in 10.0 mi North 20.7 mph 26.5 mph N/A   Overcast
6:51 AM 55.0 °F 44.1 °F 67% 30.34 in 10.0 mi North 16.1 mph - N/A   Overcast
7:51 AM 55.0 °F 43.0 °F 64% 30.36 in 10.0 mi North 19.6 mph 24.2 mph N/A   Mostly Cloudy
8:51 AM 55.0 °F 39.9 °F 57% 30.38 in 10.0 mi North 17.3 mph - N/A   Overcast
9:51 AM 57.0 °F 39.9 °F 53% 30.40 in 10.0 mi North 19.6 mph 25.3 mph N/A   Mostly Cloudy
10:51 AM 60.1 °F 39.0 °F 46% 30.40 in 10.0 mi North 17.3 mph - N/A   Mostly Cloudy
11:51 AM 61.0 °F 37.9 °F 42% 30.38 in 10.0 mi North 15.0 mph - N/A   Mostly Cloudy
12:51 PM 63.0 °F 37.0 °F 38% 30.37 in 10.0 mi North 17.3 mph 23.0 mph N/A   Mostly Cloudy
1:51 PM 66.9 °F 35.1 °F 31% 30.34 in 10.0 mi North 13.8 mph - N/A   Mostly Cloudy
2:51 PM 68.0 °F 35.1 °F 30% 30.33 in 10.0 mi North 12.7 mph - N/A   Scattered Clouds
3:51 PM 66.9 °F 37.0 °F 33% 30.32 in 10.0 mi North 16.1 mph - N/A   Scattered Clouds
4:51 PM 64.9 °F 37.9 °F 37% 30.34 in 10.0 mi North 10.4 mph - N/A   Partly Cloudy
5:51 PM 63.0 °F 41.0 °F 45% 30.33 in 10.0 mi NNW 9.2 mph - N/A   Scattered Clouds
6:51 PM 62.1 °F 41.0 °F 46% 30.35 in 10.0 mi North 6.9 mph - N/A   Scattered Clouds
7:51 PM 60.1 °F 44.1 °F 55% 30.36 in 10.0 mi NNW 5.8 mph - N/A   Scattered Clouds
8:51 PM 61.0 °F 44.1 °F 54% 30.37 in 10.0 mi North 10.4 mph - N/A   Partly Cloudy
9:51 PM 60.1 °F 44.1 °F 55% 30.36 in 10.0 mi North 10.4 mph - N/A   Scattered Clouds
10:51 PM 60.1 °F 43.0 °F 53% 30.36 in 10.0 mi North 10.4 mph - N/A   Scattered Clouds
11:51 PM 57.9 °F 42.1 °F 56% 30.35 in 10.0 mi North 9.2 mph - N/A   Partly Cloudy